Zurück zum Katalog

PRAETORIAN SDA_613

AktivMilitärPO
NORAD 65576·PAYLOAD·🇺🇸 United States

Gestartet Sep 10, 2025 von Vandenberg Space Force Base

Loading…

Nächste Überflüge (nächste 24 Stunden)

TLE

AktuellSource: Space-Track

Epoche: Sep 14, 2026, 08:28 UTC

1 65576U 25203M   26257.35296711  .00000042  00000-0  28055-4 0  9997
2 65576  81.2973 288.5268 0004866 320.4947  39.5854 13.82772338 51007

Verfolge PRAETORIAN SDA_613 in Echtzeit mit AllMySat

Download on the App Store